Location: Tel Aviv
(32.0670°N, 34.7670°E)
Time: 03:44:07
(UTC+03:00)

Tiros 1 - Pass Details

Date: 19 January 2022
Orbit: 629 x 663 km, 48.4° (Epoch: 26 May)

Event Time Altitude Azimuth Distance (km) Brightness Sun altitude
Rises 05:00:05 0° 318° (NW) 2,968 - -21.2°
Reaches altitude 10° 05:03:25 10° 342° (NNW) 2,048 - -20.5°
Exits shadow 05:04:19 13° 352° (N) 1,882 9.3 -20.3°
Maximum altitude 05:06:07 15° 17° (NNE) 1,735 9.4 -19.9°
Drops below altitude 10° 05:08:48 10° 52° (NE) 2,033 10.2 -19.4°
Sets 05:12:04 0° 76° (ENE) 2,933 11.7 -18.7°
